Location: Emblem
(62.4273°N, 6.4710°E)
Time: 07:03:04
(UTC+02:00)

Transit 2A - Pass Details

Date: 07 March 2024
Orbit: 596 x 956 km, 66.7° (Epoch: 24 April)

Event Time Altitude Azimuth Distance (km) Brightness Sun altitude
Rises 22:59:50 0° 292° (WNW) 2,901 9.7 -29.2°
Reaches altitude 10° 23:02:03 10° 297° (WNW) 2,025 8.8 -29.3°
Enters shadow 23:05:34 48° 329° (NNW) 872 6.6 -29.5°
